Regional Weather Roundup
Issued by NWS

Home | Current Version | Previous Version | Text Only | Print | Product List | Glossary On
Versions: 1 2 3 4 5 6 7 8 9 10 11 12 13 14 15 16 17 18 19 20 21 22 23 24 25 26 27 28 29 30 31 32 33 34 35 36 37 38 39 40 41 42 43 44 45 46 47 48 49 50
000
ASUS44 KOUN 280710
RWROK

WEATHER ROUNDUP FOR OKLAHOMA
NATIONAL WEATHER SERVICE NORMAN OK
100 AM CST WED JAN 28 2015

NOTE: "FAIR" INDICATES FEW OR NO CLOUDS BELOW 12,000 FEET WITH NO
      SIGNIFICANT WEATHER AND/OR OBSTRUCTIONS TO VISIBILITY.

OKZ001>007-009>012-014-015-017-280800-
NORTHWEST OKLAHOMA AND THE PANHANDLE

CITY           SKY/WX    TMP DP  RH WIND       PRES   REMARKS
GAGE           CLEAR     52  33  48 S16       30.00F
ENID/WOODRING  CLEAR     45  37  76 S7        29.99F
$$

OKZ016-021>023-033>039-044-045-280800-
SOUTHWEST OKLAHOMA

CITY           SKY/WX    TMP DP  RH WIND       PRES   REMARKS
LAWTON/REGL    CLEAR     41  36  82 CALM      30.06F
FREDERICK      CLEAR     49  39  68 S6        30.03F
CLINTON        CLEAR     53  39  59 S14       30.06F
HOBART         CLEAR     48  39  71 S13       30.06F
ALTUS AFB      CLEAR     41  39  92 CALM      30.06F
$$

OKZ018>020-024>031-280800-
CENTRAL OKLAHOMA

CITY           SKY/WX    TMP DP  RH WIND       PRES   REMARKS
OKLAHOMA CITY  PTCLDY    48  37  65 S10       30.05S
OKC/WILEY POST CLEAR     56  39  53 S12       30.04S
OKC/TINKER AFB CLEAR     50  38  63 S12       30.05S
STILLWATER     CLEAR     45  34  65 SE3       30.02S
GUTHRIE        CLEAR     60  38  43 S8        30.02F
$$

OKZ008-013-054>072-280800-
NORTHEAST OKLAHOMA

CITY           SKY/WX    TMP DP  RH WIND       PRES   REMARKS
TULSA          PTCLDY    56  36  47 S14       30.03S
TULSA/JONES    CLEAR     40  34  79 CALM      30.05F
PONCA CITY     CLEAR     54  37  52 S6        30.00F
BARTLESVILLE   CLEAR     48  34  58 S5        30.03F
MUSKOGEE       FAIR      45  31  58 S7        30.09S
$$

OKZ032-040>043-046>053-073>077-280800-
SOUTH CENTRAL/SOUTHEAST OKLAHOMA

CITY           SKY/WX    TMP DP  RH WIND       PRES   REMARKS
ARDMORE/DWNTWN CLEAR     50  36  57 CALM      30.08F
MCALESTER      CLEAR     56  37  49 S5        30.09S
$$



USA.gov is the U.S. government's official web portal to all federal, state and local government web resources and services.